This demonstration page uses our WeatherBlox Daily Observations layout. Learn more.

Left ArrowRight Arrow

40.92945, -100.16068

Hourly Observations for August 24, 2020

Temp ( °F °C ) Dew Point ( °F °C ) Humidity (%) Winds ( mph kmh ) Pressure ( in mb ) Visibility ( mi km ) Precip ( " mm )
12:15 am 00:15 Clear 78 25.5 60 15.6 54 54 S 12 19 29.89 1012 10 16.0934 0 0
12:35 am 00:35 Clear 77 25 60 15.7 56 56 SSW 10 17 29.89 1012 10 16.0934 0 0
12:55 am 00:55 Clear 76 24.5 60 15.7 58 58 S 9 15 29.9 1013 10 16.0934 0 0
1:15 am 01:15 Clear 76 24.2 60 15.6 59 59 S 9 15 29.91 1013 10 16.0934 0 0
1:35 am 01:35 Clear 75 23.8 60 15.6 60 60 S 9 15 29.92 1013 10 16.0934 0 0
1:55 am 01:55 Clear 74 23.6 60 15.6 61 61 S 9 15 29.92 1013 10 16.0934 0 0
2:15 am 02:15 Clear 74 23.4 60 15.5 61 61 S 8 13 29.92 1013 10 16.0934 0 0
2:35 am 02:35 Clear 73 22.6 60 15.5 64 64 S 6 9 29.93 1014 10 16.0934 0 0
2:55 am 02:55 Clear 73 22.8 59 15.2 62 62 SSE 3 6 29.93 1013 10 16.0934 0 0
3:15 am 03:15 Clear 73 22.5 59 15.2 63 63 Calm 29.93 1014 10 16.0934 0 0
3:35 am 03:35 Clear 68 20.2 60 15.7 75 75 E 3 6 29.96 1015 10 16.0934 0 0
3:55 am 03:55 Clear 71 21.4 59 15.2 68 68 Calm 29.95 1014 10 16.0934 0 0
4:15 am 04:15 Clear 70 21 59 15 69 69 Calm 29.94 1014 10 16.0934 0 0
4:35 am 04:35 Clear 70 21.3 59 15.1 68 68 Calm 29.94 1014 10 16.0934 0 0
4:55 am 04:55 Clear 69 20.4 59 14.8 70 70 Calm 29.95 1014 10 16.0934 0 0
5:15 am 05:15 Clear 70 21 59 14.9 68 68 Calm 29.94 1014 10 16.0934 0 0
5:35 am 05:35 Clear 69 20.7 58 14.6 68 68 Calm 29.94 1014 10 16.0934 0 0
5:55 am 05:55 Clear 69 20.7 58 14.6 68 68 S 3 6 29.94 1014 10 16.0934 0 0
6:15 am 06:15 Clear 68 20.2 58 14.6 70 70 S 5 7 29.94 1014 10 16.0934 0 0
6:35 am 06:35 Clear 68 20.1 58 14.5 70 70 Calm 29.94 1014 10 16.0934 0 0
6:55 am 06:55 Clear 68 19.9 58 14.5 71 71 SSE 6 9 29.94 1014 10 16.0934 0 0
7:15 am 07:15 Sunny 67 19.6 58 14.5 73 73 SSE 6 9 29.95 1014 10 16.0934 0 0
7:35 am 07:35 Sunny 68 20.1 58 14.5 70 70 SSE 5 7 29.94 1014 10 16.0934 0 0
7:55 am 07:55 Sunny 68 20.1 58 14.7 71 71 Calm 29.95 1014 10 16.0934 0 0
8:15 am 08:15 Sunny 70 21.2 58 14.6 66 66 S 7 11 29.94 1014 10 16.0934 0 0
8:35 am 08:35 Sunny 71 21.6 59 15 66 66 S 7 11 29.94 1014 10 16.0934 0 0
8:55 am 08:55 Sunny 73 22.5 59 15.1 63 63 SSW 5 7 29.93 1014 10 16.0934 0 0
9:15 am 09:15 Sunny 74 23.5 60 15.4 61 61 Calm 29.92 1013 10 16.0934 0 0
9:35 am 09:35 Sunny 76 24.6 60 15.4 57 57 SW 5 7 29.91 1013 10 16.0934 0 0
9:55 am 09:55 Sunny 78 25.4 59 15.1 53 53 SSW 7 11 29.91 1013 10 16.0934 0 0
10:15 am 10:15 Sunny 79 26.3 59 14.8 49 49 SSW 7 11 29.9 1012 10 16.0934 0 0
10:35 am 10:35 Sunny 81 27.1 59 15 48 48 S 8 13 29.89 1012 10 16.0934 0 0
10:55 am 10:55 Sunny 82 28 60 15.4 46 46 SSW 8 13 29.89 1012 10 16.0934 0 0
11:15 am 11:15 Sunny 83 28.4 59 15.1 44 44 SSW 8 13 29.88 1012 10 16.0934 0 0
11:35 am 11:35 Sunny 85 29.4 60 15.4 43 43 SSW 10 17 29.86 1011 10 16.0934 0 0
11:55 am 11:55 Sunny 86 30.2 60 15.6 41 41 SSW 12 19 29.86 1011 10 16.0934 0 0
12:15 pm 12:15 Sunny 88 31 60 15.8 40 40 SSW 8 13 29.86 1011 10 16.0934 0 0
12:35 pm 12:35 Sunny 89 31.5 61 16 39 39 SSW 12 19 29.86 1011 10 16.0934 0 0
12:55 pm 12:55 Sunny 90 32.3 60 15.8 37 37 S 7 11 29.84 1011 10 16.0934 0 0
1:15 pm 13:15 Sunny 92 33.1 59 15.1 34 34 S 9 15 29.83 1010 10 16.0934 0 0
1:35 pm 13:35 Sunny 93 33.9 59 15 32 32 SSE 9 15 29.83 1010 10 16.0934 0 0
1:55 pm 13:55 Sunny 93 33.8 61 15.9 34 34 SSE 12 19 29.82 1010 10 16.0934 0 0
2:15 pm 14:15 Sunny 93 33.9 62 16.4 35 35 SSE 14 22 29.82 1010 10 16.0934 0 0
2:35 pm 14:35 Sunny 93 33.8 62 16.6 36 36 SSE 14 22 29.81 1009 10 16.0934 0 0
2:55 pm 14:55 Sunny 94 34.2 60 15.7 33 33 SSE 16 26 29.8 1009 10 16.0934 0 0
3:15 pm 15:15 Sunny 95 34.8 60 15.4 31 31 SSE 15 24 29.78 1009 10 16.0934 0 0
3:35 pm 15:35 Sunny 95 35 59 15.2 30 30 SSE 13 20 29.78 1008 10 16.0934 0 0
3:55 pm 15:55 Sunny 97 36.1 59 14.9 28 28 SSE 15 24 29.76 1008 10 16.0934 0 0
4:15 pm 16:15 Sunny 97 36.1 60 15.5 29 29 SSE 15 24 29.76 1008 10 16.0934 0 0
4:35 pm 16:35 Sunny 96 35.6 60 15.8 31 31 SSE 15 24 29.76 1008 10 16.0934 0 0
4:55 pm 16:55 Sunny 96 35.4 61 15.9 31 31 SSE 14 22 29.76 1008 10 16.0934 0 0
5:15 pm 17:15 Sunny 96 35.3 60 15.6 31 31 SSE 15 24 29.76 1008 10 16.0934 0 0
5:35 pm 17:35 Sunny 94 34.3 59 15.2 32 32 SSE 14 22 29.77 1008 10 16.0934 0 0
5:55 pm 17:55 Sunny 93 34 61 15.9 34 34 SSE 14 22 29.77 1008 10 16.0934 0 0
6:15 pm 18:15 Sunny 93 34 63 17 36 36 SSE 13 20 29.77 1008 10 16.0934 0 0
6:35 pm 18:35 Sunny 92 33.5 63 17.2 38 38 SE 12 19 29.77 1008 10 16.0934 0 0
6:55 pm 18:55 Sunny 91 33 62 16.6 37 37 SE 12 19 29.78 1008 10 16.0934 0 0
7:15 pm 19:15 Sunny 91 32.5 62 16.8 39 39 SE 10 17 29.78 1008 10 16.0934 0 0
7:35 pm 19:35 Sunny 90 32 62 16.6 40 40 SE 9 15 29.78 1009 10 16.0934 0 0
7:55 pm 19:55 Sunny 88 31 61 16.2 41 41 SE 10 17 29.78 1009 10 16.0934 0 0
8:15 pm 20:15 Sunny 86 30 61 16.2 43 43 SE 9 15 29.79 1009 10 16.0934 0 0
8:35 pm 20:35 Clear 83 28.6 62 16.5 48 48 SSE 8 13 29.81 1009 10 16.0934 0 0
8:55 pm 20:55 Clear 82 27.8 61 16.2 49 49 SSE 10 17 29.82 1010 10 16.0934 0 0
9:15 pm 21:15 Clear 80 26.8 61 16.1 52 52 SSE 9 15 29.83 1010 10 16.0934 0 0
9:35 pm 21:35 Clear 80 26.5 60 15.7 52 52 SSE 10 17 29.84 1010 10 16.0934 0 0
9:55 pm 21:55 Clear 80 26.8 59 14.9 48 48 SSE 13 20 29.85 1011 10 16.0934 0 0
10:15 pm 22:15 Clear 80 26.9 58 14.7 47 47 SSE 12 19 29.84 1011 10 16.0934 0 0
10:35 pm 22:35 Clear 80 26.5 58 14.7 48 48 SSE 12 19 29.85 1011 10 16.0934 0 0
10:55 pm 22:55 Clear 79 26 59 14.8 50 50 SSE 12 19 29.86 1011 10 16.0934 0 0
11:15 pm 23:15 Clear 78 25.8 59 15 51 51 SSE 10 17 29.86 1011 10 16.0934 0 0
11:35 pm 23:35 Clear 79 26 59 15.2 51 51 S 13 20 29.86 1011 10 16.0934 0 0
11:55 pm 23:55 Clear 79 26 59 15.2 51 51 S 15 24 29.85 1011 10 16.0934 0 0

Powered by AerisWeather